Starlink 35625

operational
NORAD ID: 66140 Int'l Des: 2025-237 Owner: SPXS Country: US Constellation: starlink
LEOCIRCULAR

About Starlink 35625

Description loading...

Live Position

Loading 3D Globe...

Upcoming Passes

Altitude History

Altitude vs Time

uPlot chart will show altitude changes over time

Two-Line Element Set

1 66140C 25237AC 25298.71993056 -.01212300 00000+0 -18344-2 0 2986
2 66140 53.1547 319.2571 0000780 82.5578 100.5937 16.05058560 14
Epoch: Oct 25, 2025 • Age: 141 hours

Current Status

Altitude 285.3 km
Velocity 7.74 km/s
Sub-Earth Point 8.99°N, 54.96°W
Launch Date Oct 22, 2025
Age 8 days
Type internet

Technical Details

Classification Payload
Mass 575.00 kg
Dry Mass 530.00 kg
Total Mass 575.00 kg
Length 0.30 m
Diameter 4.10 m
Span 29.00 m
Shape Box + pan
Manufacturer SPXS
Bus Type Starlink V2MO
Phase Status In Orbit
Owner/State SPXS/US

Large Constellations

Loading constellations...